ONEWEB-0384 (49310 NORAD) Tracking and Keplerian Element Data

This shows tracking and keplerian element data for the satellite.

Feedback or suggestion? Click here.




ElementValue
Catalog49310
NameONEWEB-0384
Epoch Orbit354
Epoch Day339.91667824
Epoch Year2021
RAAN274.9768
Inclination87.202
Eccentricity0.0013335
Argument of Perigee67.95
Mean Anonmoly165.1877
Mean Motion14.90955093
Decay Rate-0.00054188
L11 49310U 21090AH 21339.91667824 -.00054188 00000+0 -55329-2 0 9993
L22 49310 87.2020 274.9768 0013335 67.9500 165.1877 14.90955093 3545

Live tracking and technical data element details for ONEWEB-0384 (NORAD 49310). ONEWEB-0384 can be tracked NOW for your location showing map with azimuth and elevation plus other details from your city location.

Track the satellite on the map from your city or location and see movement details for azimuth, elevation, latitude, longitude, range, height, and movement on the map or in text.







IsCatalogInMostPopularTable: catalog: 49310, numindb: 7
Update: records affected: 1



GetName: 49310 ONEWEB-0384

Hit Count: updated at: Mon, 06 Dec 2021 15:43:38 GMT